JILIN-1 09 (43943 NORAD) Tracking and Keplerian Element Data

This shows tracking and keplerian element data for the satellite.

Feedback or suggestion? Click here.




ElementValue
Catalog43943
NameJILIN-1 09
Epoch Orbit33361
Epoch Day35.14925331
Epoch Year2025
RAAN131.4048
Inclination97.4809
Eccentricity0.0004111
Argument of Perigee46.9246
Mean Anonmoly313.2329
Mean Motion15.14344991
Decay Rate9.017E-05
L11 43943U 19005B 25035.14925331 .00009017 00000+0 49515-3 0 9994
L22 43943 97.4809 131.4048 0004111 46.9246 313.2329 15.14344991333611



Live tracking and technical data element details for JILIN-1 09 (NORAD 43943). JILIN-1 09 can be tracked NOW for your location showing map with azimuth and elevation plus other details from your city location.







IsCatalogInMostPopularTable: catalog: 43943, numindb: 281
Update: records affected: 1



GetName: 43943 JILIN-1 09

Hit Count: updated at: Thu, 22 May 2025 04:41:31 GMT